#timestamp,LO_Frequency,Hit 
1498071615.1,286046967.2,N
1498071635.9,286046964.6,N
1498071655.7,286046965.0,N
1498071675.5,286046967.5,N
1498071695.4,286046965.0,N
1498071715.2,286046965.0,N
1498071735.0,286046964.9,N
1498071735.9,286046964.9,N
1498071755.8,286046965.5,N
1498071775.6,286046962.9,N
1498071795.4,286046965.4,N
1498071815.2,286046965.1,N
1498071835.1,286046967.6,N
1498071836.0,286046967.6,N
1498071855.8,286046969.2,N
1498071875.6,286046968.6,N
1498071895.5,286046966.2,N
1498071915.3,286046966.2,N
1498071935.1,286046968.7,N
1498071955.9,286046970.4,N
1498071975.7,286046970.6,N
1498071995.5,286046967.7,N
1498072015.4,286046967.9,N
1498072035.2,286046970.6,N
1498072055.0,286046968.2,N
1498072055.9,286046968.2,N
1498072075.7,286046969.5,N
1498072095.6,286046970.0,N
1498072115.4,286046969.6,N
1498072135.2,286046969.6,N
1498072155.1,286046970.4,N
1498072156.0,286046970.4,N
1498072175.8,286046970.2,N
1498072195.6,286046970.5,N
1498072215.5,286046970.2,N
1498072235.3,286046969.4,N
1498072255.1,286046969.6,N
1498072275.9,286046970.4,N
1498072295.7,286046970.0,N
1498072315.5,286046972.1,N
1498072335.4,286046973.6,N
1498072355.2,286046971.2,N
1498072375.0,286046971.5,N
1498072375.9,286046971.5,N
1498072395.7,286046971.4,N
1498072415.6,286046974.0,N
1498072435.4,286046972.8,N
1498072455.2,286046972.9,N
1498072475.1,286046973.1,N
1498072476.0,286046973.1,N
1498072495.8,286046972.7,N
1498072515.6,286046973.0,N
1498072535.5,286046972.5,N
1498072555.3,286046972.5,N
1498072575.1,286046974.9,N
1498072595.9,286046976.6,N
1498072615.7,286046975.7,N
1498072635.5,286046976.2,N
1498072655.4,286046978.7,N
1498072675.2,286046975.8,N
1498072695.0,286046976.8,N
1498072695.9,286046976.8,N
1498072715.7,286046977.0,N
1498072735.6,286046975.9,N
1498072755.4,286046977.1,N
1498072775.2,286046976.6,N
1498072795.1,286046976.0,N
1498072796.0,286046976.0,N
1498072815.8,286046976.5,N
1498072835.6,286046977.1,N
1498072855.5,286046978.7,N
1498072875.3,286046977.3,N
1498072895.1,286046979.1,N
1498072915.9,286046979.3,N
1498072935.7,286046981.7,N
1498072955.5,286046983.2,N
1498072975.4,286046980.9,N
1498072995.2,286046981.7,N
1498073015.0,286046981.7,N
1498073015.9,286046981.7,N
1498073035.7,286046981.3,N
1498073055.6,286046980.6,N
1498073075.4,286046980.9,N
1498073095.2,286046981.2,N
1498073115.1,286046981.2,N
1498073116.0,286046981.2,N
1498073135.8,286046980.6,N
1498073155.6,286046981.2,N
1498073175.5,286046983.5,N
1498073195.3,286046980.8,N
1498073215.1,286046982.8,N
1498073235.2,286046982.9,N
1498073255.0,286046982.7,N
1498073255.9,286046982.7,N
1498073275.8,286046982.7,N
1498073295.6,286046982.6,N
1498073315.4,286046982.1,N
1498073335.3,286046982.5,N
1498073355.1,286046982.2,N
1498073356.0,286046982.2,N
1498073375.8,286046985.2,N
1498073395.7,286046984.8,N
1498073415.5,286046984.7,N
1498073435.3,286046984.9,N
1498073455.2,286046984.8,N
1498073475.9,286046984.0,N
1498073495.7,286046985.6,N
1498073515.5,286046984.2,N
1498073535.4,286046986.0,N
1498073555.2,286046985.6,N
1498073575.0,286046988.4,N
1498073575.9,286046988.4,N
1498073595.8,286046987.5,N
1498073615.6,286046988.3,N
1498073635.4,286046988.2,N
1498073655.3,286046988.4,N
1498073675.1,286046987.9,N
1498073676.0,286046987.9,N
1498073695.8,286046988.1,N
1498073715.7,286046988.4,N
1498073735.5,286046987.8,N
1498073755.3,286046989.9,N
1498073775.1,286046988.8,N
1498073795.9,286046988.8,N
1498073815.7,286046991.6,N
1498073835.5,286046988.7,N
1498073855.4,286046989.9,N
1498073875.2,286046990.9,N
1498073895.0,286046991.4,N
1498073895.9,286046991.4,N
1498073915.8,286046988.7,N
1498073935.6,286046987.0,N
1498073955.4,286046989.7,N
1498073975.3,286046987.2,N
1498073995.1,286046986.9,N
1498073996.0,286046986.9,N
1498074015.8,286046989.4,N
1498074035.7,286046988.8,N
1498074055.5,286046990.7,N
1498074075.3,286046993.2,N
1498074095.1,286046990.6,N
1498074115.9,286046990.3,N
1498074135.7,286046993.1,N
1498074155.5,286046992.8,N
1498074175.4,286046990.5,N
1498074195.2,286046994.8,N
1498074215.0,286046993.5,N
1498074215.9,286046993.5,N
1498074235.8,286046994.6,N
1498074255.6,286046994.4,N
1498074275.4,286046991.7,N
1498074295.3,286046991.8,N
1498074315.1,286046993.0,N
1498074316.0,286046993.0,N
1498074335.8,286046991.9,N
1498074355.6,286046991.8,N
1498074375.5,286046992.0,N
1498074395.6,286046994.2,N
1498074415.4,286046993.9,N
1498074435.0,286046995.7,N
1498074435.9,286046995.7,N
1498074455.8,286046995.1,N
1498074475.6,286046995.1,N
1498074495.4,286046995.2,N
1498074515.3,286046995.9,N
1498074535.1,286046993.8,N
1498074536.0,286046993.8,N
1498074555.8,286046993.7,N
1498074575.7,286046993.3,N
1498074595.5,286046995.0,N
1498074615.3,286046997.2,N
1498074635.1,286046997.7,N
1498074655.9,286046995.1,N
1498074675.7,286046997.3,N
1498074695.5,286046999.1,N
1498074715.4,286046998.1,N
1498074735.2,286046998.6,N
1498074755.0,286046999.2,N
1498074755.9,286046999.2,N
1498074775.8,286046999.4,N
1498074795.6,286046998.8,N
1498074815.4,286046998.8,N
1498074835.2,286046997.1,N
1498074855.1,286046999.5,N
1498074856.0,286046999.5,N
1498074875.8,286046994.9,N
1498074895.6,286046996.5,N
1498074915.5,286046998.8,N
1498074935.3,286046999.7,N
1498074955.1,286047000.3,N
1498074975.9,286047002.3,N
1498074995.7,286047002.8,N
1498075015.5,286047001.4,N
1498075035.4,286047004.0,N
1498075055.2,286047001.6,N
1498075075.0,286047001.9,N
1498075075.9,286047001.9,N
1498075095.8,286047003.8,N
1498075115.6,286047003.3,N
1498075135.4,286047005.6,N
1498075155.2,286047001.4,N
1498075175.1,286047001.6,N
1498075176.0,286047001.6,N
1498075195.8,286047000.2,N
